FW2584 Weather Reports


Display with metric or nautical units.
time (UTC)temp
F
wind
direction
speed
MPH
gust
MPH
rain 1hr
in
rain 24hr
in
rain mn
in
humidity
%
barometer
mb
20260901043524 76 0 0.0 0.0 0.00 0.00 0.00 96 1019.1
20260901043042 76 0 0.0 0.0 0.00 0.00 0.00 96 1019.1
20260901042524 76 0 0.0 0.0 0.00 0.00 0.00 96 1019.0
20260901042025 76 0 0.0 0.0 0.00 0.00 0.00 96 1019.0
20260901041543 76 0 0.0 0.0 0.00 0.00 0.00 96 1018.9
20260901041024 76 0 0.0 0.0 0.00 0.00 0.00 96 1019.1
20260901040524 76 0 0.0 0.0 0.00 0.00 0.00 96 1019.0
20260901040054 77 0 0.0 0.0 0.00 0.00 0.00 96 1019.1
20260901035523 77 0 0.0 0.0 0.00 0.00 0.00 96 1019.1
20260901035023 77 0 0.0 0.0 0.00 0.00 0.00 96 1019.1
20260901034547 77 0 0.0 0.0 0.00 0.00 0.00 96 1019.1
20260901034021 77 0 0.0 0.0 0.00 0.00 0.00 95 1019.0
20260901033522 77 0 0.0 0.0 0.00 0.00 0.00 95 1019.1
20260901033041 77 0 0.0 0.0 0.00 0.00 0.00 95 1019.2
20260901032524 77 0 0.0 0.0 0.00 0.00 0.00 95 1019.1
20260901032024 77 0 0.0 0.0 0.00 0.00 0.00 95 1019.0
20260901031542 77 0 0.0 0.0 0.00 0.00 0.00 95 1019.1
20260901031024 77 0 0.0 0.0 0.00 0.00 0.00 95 1019.1
20260901030523 78 0 0.0 0.0 0.00 0.00 0.00 95 1019.0
20260901030046 78 0 0.0 0.0 0.00 0.00 0.00 95 1019.1
20260901025525 78 0 0.0 0.0 0.00 0.00 0.00 94 1019.1
20260901025026 78 0 0.0 0.0 0.00 0.00 0.00 94 1019.1
20260901024543 78 0 0.0 0.0 0.00 0.00 0.00 94 1019.0
20260901024028 78 0 0.0 0.0 0.00 0.00 0.00 94 1019.1
20260901023521 78 0 0.0 0.0 0.00 0.00 0.00 93 1019.1
20260901023039 78 0 0.0 0.0 0.00 0.00 0.00 93 1019.0
20260901022525 78 0 0.0 0.0 0.00 0.00 0.00 93 1018.9
20260901022026 78 0 0.0 0.0 0.00 0.00 0.00 93 1018.8
20260901021539 78 0 0.0 0.0 0.00 0.00 0.00 93 1018.9
20260901021024 78 0 0.0 0.0 0.00 0.00 0.00 92 1018.9
20260901020526 78 0 0.0 0.0 0.00 0.00 0.00 92 1018.8
20260901020042 78 0 0.0 0.0 0.00 0.00 0.00 92 1018.7
20260901015525 78 0 0.0 0.0 0.00 0.00 0.00 92 1018.6
20260901015023 78 0 0.0 0.0 0.00 0.00 0.00 92 1018.7
20260901014541 78 0 0.0 0.0 0.00 0.00 0.00 92 1018.6
20260901014026 78 0 0.0 0.0 0.00 0.00 0.00 92 1018.5
20260901013525 78 0 0.0 0.0 0.00 0.00 0.00 92 1018.5
20260901013102 78 0 0.0 0.0 0.00 0.00 0.00 91 1018.4
20260901012523 79 0 0.0 0.0 0.00 0.00 0.00 92 1018.2
20260901012027 79 0 0.0 0.0 0.00 0.00 0.00 92 1018.1
20260901011541 79 0 0.0 0.0 0.00 0.00 0.00 92 1018.0
20260901011024 79 0 0.0 0.0 0.00 0.00 0.00 91 1018.0
20260901010524 79 0 0.0 0.0 0.00 0.00 0.00 90 1017.8
20260901010042 79 0 0.0 0.0 0.00 0.00 0.00 89 1017.9
20260901005524 80 0 0.0 0.0 0.00 0.00 0.00 89 1017.8
20260901005024 80 0 0.0 0.0 0.00 0.00 0.00 89 1017.7
20260901004545 80 0 0.0 0.0 0.00 0.00 0.00 89 1017.7
20260901004024 80 0 0.0 0.0 0.00 0.00 0.00 88 1017.6
20260901003524 80 0 0.0 0.0 0.00 0.00 0.00 88 1017.6
20260901003042 80 0 0.0 0.0 0.00 0.00 0.00 88 1017.6
20260901002524 81 0 0.0 0.0 0.00 0.00 0.00 88 1017.6
20260901002025 81 0 0.0 0.0 0.00 0.00 0.00 88 1017.6
20260901001540 81 0 0.0 0.0 0.00 0.00 0.00 87 1017.5
20260901001024 81 0 0.0 0.0 0.00 0.00 0.00 86 1017.5
20260901000524 82 0 0.0 0.0 0.00 0.00 0.00 85 1017.4
20260901000046 82 0 0.0 0.0 0.00 0.00 0.00 84 1017.3
20260831235524 82 0 0.0 0.0 0.00 0.00 0.00 82 1017.2
20260831235034 83 0 0.0 0.0 0.00 0.00 0.00 82 1017.3
20260831234548 83 0 0.0 0.0 0.00 0.00 0.00 82 1017.2
20260831234024 83 0 0.0 0.0 0.00 0.00 0.00 81 1017.3
20260831233527 84 0 0.0 0.0 0.00 0.00 0.00 80 1017.3
20260831233038 84 0 0.0 0.0 0.00 0.00 0.00 79 1017.4
20260831232523 85 0 0.0 0.0 0.00 0.00 0.00 78 1017.4
20260831232024 85 0 0.0 0.0 0.00 0.00 0.00 77 1017.5
20260831231542 86 0 0.0 0.0 0.00 0.00 0.00 76 1017.5
20260831231025 87 0 0.0 0.0 0.00 0.00 0.00 76 1017.5
20260831230525 87 0 0.0 0.0 0.00 0.00 0.00 74 1017.5
20260831230041 88 0 0.0 1.0 0.00 0.00 0.00 74 1017.5
20260831225525 88 0 0.0 1.0 0.00 0.00 0.00 72 1017.5
20260831225024 89 0 0.0 0.0 0.00 0.00 0.00 71 1017.5
20260831224540 89 0 0.0 1.0 0.00 0.00 0.00 69 1017.6
20260831224025 90 0 0.0 1.0 0.00 0.00 0.00 66 1017.4
20260831223525 90 0 0.0 0.0 0.00 0.00 0.00 69 1017.3
20260831223043 90 0 0.0 1.0 0.00 0.00 0.00 65 1017.3
20260831222526 90 0 0.0 1.0 0.00 0.00 0.00 66 1017.3
20260831222024 90 0 0.0 1.0 0.00 0.00 0.00 65 1017.3
20260831221559 90 0 0.0 4.0 0.00 0.00 0.00 64 1017.1
20260831221024 91 0 0.0 4.0 0.00 0.00 0.00 63 1017.2
20260831220525 91 0 0.0 4.0 0.00 0.00 0.00 64 1017.2
20260831220042 91 0 0.0 3.0 0.00 0.00 0.00 64 1017.2
20260831215525 91 0 0.0 1.0 0.00 0.00 0.00 64 1017.3
20260831215030 91 0 0.0 5.0 0.00 0.00 0.00 65 1017.3
20260831214544 91 0 0.0 5.0 0.00 0.00 0.00 64 1017.4
20260831214024 92 0 0.0 3.0 0.00 0.00 0.00 62 1017.4
20260831213527 93 303 0.0 2.0 0.00 0.00 0.00 62 1017.5
20260831213044 93 304 0.0 2.0 0.00 0.00 0.00 61 1017.5
20260831212523 93 0 0.0 6.0 0.00 0.00 0.00 61 1017.5
20260831212024 93 0 1.0 6.0 0.00 0.00 0.00 62 1017.4
20260831211539 93 0 0.0 4.0 0.00 0.00 0.00 61 1017.4
20260831211024 93 0 0.0 4.0 0.00 0.00 0.00 61 1017.4
20260831210524 94 269 0.0 5.0 0.00 0.00 0.00 62 1017.3
20260831210042 94 0 0.0 5.0 0.00 0.00 0.00 61 1017.3
20260831205524 94 0 0.0 1.0 0.00 0.00 0.00 61 1017.4
20260831205024 93 0 0.0 4.0 0.00 0.00 0.00 63 1017.5
20260831204541 93 0 0.0 4.0 0.00 0.00 0.00 64 1017.6
20260831204025 92 0 0.0 7.0 0.00 0.00 0.00 66 1017.5
20260831203523 92 0 1.0 7.0 0.00 0.00 0.00 64 1017.5
20260831203100 91 314 0.0 4.0 0.00 0.00 0.00 65 1017.6
20260831202525 90 0 0.0 0.0 0.00 0.00 0.00 70 1017.8
20260831202023 91 0 0.0 1.0 0.00 0.00 0.00 68 1017.8
20260831201550 91 0 0.0 1.0 0.00 0.00 0.00 64 1017.9
20260831201027 92 0 0.0 3.0 0.00 0.00 0.00 64 1018.0
20260831200524 93 0 0.0 4.0 0.00 0.00 0.00 61 1018.1
20260831200124 93 0 0.0 4.0 0.00 0.00 0.00 62 1018.1
20260831195526 94 313 0.0 3.0 0.00 0.00 0.00 62 1018.2
20260831195024 93 0 0.0 4.0 0.00 0.00 0.00 63 1018.1
20260831194540 93 0 0.0 4.0 0.00 0.00 0.00 62 1018.3
20260831194025 93 0 0.0 2.0 0.00 0.00 0.00 64 1018.4
20260831193525 93 257 0.0 4.0 0.00 0.00 0.00 63 1018.2
20260831193041 93 0 0.0 4.0 0.00 0.00 0.00 62 1018.3
20260831192523 93 0 0.0 4.0 0.00 0.00 0.00 64 1018.3
20260831192023 93 28 0.0 4.0 0.00 0.00 0.00 64 1018.2
20260831191545 93 0 0.0 4.0 0.00 0.00 0.00 66 1018.3
20260831191026 93 0 0.0 6.0 0.00 0.00 0.00 66 1018.4
20260831190528 93 0 0.0 6.0 0.00 0.00 0.00 66 1018.4
20260831190043 93 0 0.0 3.0 0.00 0.00 0.00 63 1018.6
20260831185525 92 0 0.0 1.0 0.00 0.00 0.00 66 1018.7
20260831185028 92 0 0.0 1.0 0.00 0.00 0.00 66 1018.8
20260831184545 92 0 0.0 1.0 0.00 0.00 0.00 65 1018.9
20260831184025 92 0 0.0 1.0 0.00 0.00 0.00 65 1019.0
20260831183528 92 0 0.0 1.0 0.00 0.00 0.00 67 1019.1
20260831183040 91 0 0.0 1.0 0.00 0.00 0.00 70 1019.1
20260831182525 91 0 0.0 1.0 0.00 0.00 0.00 69 1019.2
20260831182025 91 0 0.0 6.0 0.00 0.00 0.00 67 1019.2
20260831181552 91 0 0.0 6.0 0.00 0.00 0.00 66 1019.2
20260831181025 91 283 1.0 4.0 0.00 0.00 0.00 65 1019.3
20260831180524 91 276 1.0 4.0 0.00 0.00 0.00 66 1019.4
20260831180043 91 242 0.0 4.0 0.00 0.00 0.00 68 1019.6
20260831175524 91 240 0.0 4.0 0.00 0.00 0.00 68 1019.5
20260831175026 90 0 0.0 4.0 0.00 0.00 0.00 68 1019.6
20260831174551 90 0 0.0 4.0 0.00 0.00 0.00 69 1019.6
20260831174023 91 176 0.0 4.0 0.00 0.00 0.00 68 1019.6
20260831173524 91 0 1.0 4.0 0.00 0.00 0.00 69 1019.7
20260831173043 90 0 0.0 4.0 0.00 0.00 0.00 69 1019.7
20260831172525 90 0 0.0 3.0 0.00 0.00 0.00 68 1019.7
20260831172026 90 0 0.0 6.0 0.00 0.00 0.00 74 1019.8
20260831171546 90 0 0.0 6.0 0.00 0.00 0.00 69 1019.9
20260831171028 90 0 0.0 3.0 0.00 0.00 0.00 70 1019.9
20260831170525 89 0 1.0 3.0 0.00 0.00 0.00 70 1019.9
20260831170052 89 0 0.0 3.0 0.00 0.00 0.00 71 1020.0
20260831165527 89 0 0.0 3.0 0.00 0.00 0.00 71 1020.1
20260831165025 90 0 0.0 3.0 0.00 0.00 0.00 70 1020.1
20260831164540 90 0 0.0 1.0 0.00 0.00 0.00 70 1020.2
20260831164027 90 0 0.0 2.0 0.00 0.00 0.00 75 1020.2
20260831163524 89 0 0.0 4.0 0.00 0.00 0.00 71 1020.4
20260831163044 89 0 0.0 4.0 0.00 0.00 0.00 71 1020.3
20260831162525 89 355 1.0 4.0 0.00 0.00 0.00 71 1020.3
20260831162026 89 0 0.0 3.0 0.00 0.00 0.00 77 1020.4
20260831161544 88 0 0.0 4.0 0.00 0.00 0.00 74 1020.3
20260831161024 88 0 0.0 4.0 0.00 0.00 0.00 73 1020.4
20260831160525 88 0 1.0 4.0 0.00 0.00 0.00 73 1020.4
20260831160042 87 0 0.0 3.0 0.00 0.00 0.00 77 1020.4
20260831155525 87 0 0.0 4.0 0.00 0.00 0.00 74 1020.3
20260831155024 87 355 0.0 5.0 0.00 0.00 0.00 74 1020.4
20260831154610 87 0 2.0 5.0 0.00 0.00 0.00 76 1020.4
20260831154023 87 0 0.0 2.0 0.00 0.00 0.00 78 1020.4
20260831153524 87 0 0.0 2.0 0.00 0.00 0.00 77 1020.4
20260831153040 87 0 0.0 2.0 0.00 0.00 0.00 76 1020.5
20260831152525 87 0 0.0 3.0 0.00 0.00 0.00 77 1020.5
20260831152025 86 0 0.0 3.0 0.00 0.00 0.00 78 1020.6
20260831151545 86 308 0.0 3.0 0.00 0.00 0.00 77 1020.4
20260831151024 85 0 0.0 1.0 0.00 0.00 0.00 77 1020.5
20260831150524 85 0 0.0 2.0 0.00 0.00 0.00 81 1020.4
20260831150042 84 0 0.0 4.0 0.00 0.00 0.00 79 1020.5
20260831145525 84 0 0.0 5.0 0.00 0.00 0.00 82 1020.4
20260831145023 83 259 1.0 5.0 0.00 0.00 0.00 83 1020.4
20260831144541 83 0 1.0 5.0 0.00 0.00 0.00 83 1020.3
20260831144025 82 280 1.0 4.0 0.00 0.00 0.00 84 1020.3
20260831143524 82 283 0.0 4.0 0.00 0.00 0.00 86 1020.2
20260831143043 82 0 0.0 2.0 0.00 0.00 0.00 89 1020.3
20260831142525 81 0 0.0 4.0 0.00 0.00 0.00 89 1020.3
20260831142027 81 0 0.0 4.0 0.00 0.00 0.00 90 1020.2
20260831141547 80 286 0.0 4.0 0.00 0.00 0.00 90 1020.2
20260831141025 80 0 0.0 3.0 0.00 0.00 0.00 92 1020.2
20260831140525 79 0 0.0 3.0 0.00 0.00 0.00 94 1020.1
20260831140042 79 0 0.0 2.0 0.00 0.00 0.00 95 1020.0
20260831135523 78 0 0.0 3.0 0.00 0.00 0.00 96 1020.0
20260831135025 78 275 0.0 3.0 0.00 0.00 0.00 97 1019.9
20260831134547 78 275 0.0 3.0 0.00 0.00 0.00 98 1019.9
20260831134026 77 0 0.0 0.0 0.00 0.00 0.00 98 1020.0
20260831133524 77 0 0.0 0.0 0.00 0.00 0.00 99 1020.0
20260831133042 77 0 0.0 0.0 0.00 0.00 0.00 99 1020.1
20260831132526 76 0 0.0 0.0 0.00 0.00 0.00 99 1020.1
20260831132025 76 0 0.0 3.0 0.00 0.00 0.00 100 1020.1
20260831131540 76 0 0.0 3.0 0.00 0.00 0.00 100 1020.2
20260831131024 75 273 0.0 2.0 0.00 0.00 0.00 100 1020.2
20260831130524 75 0 0.0 0.0 0.00 0.00 0.00 100 1020.3
20260831130051 75 0 0.0 0.0 0.00 0.00 0.00 100 1020.3
20260831125524 75 0 0.0 0.0 0.00 0.00 0.00 100 1020.2
20260831125025 74 0 0.0 0.0 0.00 0.00 0.00 100 1020.2
20260831124542 74 0 0.0 0.0 0.00 0.00 0.00 100 1020.2
20260831124025 73 0 0.0 0.0 0.00 0.00 0.00 100 1020.1
20260831123525 73 0 0.0 0.0 0.00 0.00 0.00 100 1020.1
20260831123039 72 0 0.0 0.0 0.00 0.00 0.00 100 1020.1
20260831122524 72 0 0.0 0.0 0.00 0.00 0.00 100 1020.1
20260831122025 72 0 0.0 0.0 0.00 0.00 0.00 100 1020.1
20260831121539 72 0 0.0 0.0 0.00 0.00 0.00 100 1020.2
20260831121024 72 0 0.0 0.0 0.00 0.00 0.00 100 1020.0
20260831120524 72 0 0.0 0.0 0.00 0.00 0.00 100 1020.0
20260831120057 71 0 0.0 0.0 0.00 0.00 0.00 100 1020.0
20260831115525 71 0 0.0 0.0 0.00 0.00 0.00 100 1020.0
20260831115028 71 0 0.0 0.0 0.00 0.00 0.00 100 1020.0
20260831114546 71 0 0.0 0.0 0.00 0.00 0.00 100 1020.0
20260831114025 71 0 0.0 0.0 0.00 0.00 0.00 99 1019.9
20260831113525 70 0 0.0 0.0 0.00 0.00 0.00 100 1019.8
20260831113050 70 0 0.0 0.0 0.00 0.00 0.00 100 1019.9
20260831112524 70 0 0.0 0.0 0.00 0.00 0.00 100 1019.9
20260831112024 70 0 0.0 0.0 0.00 0.00 0.00 100 1019.9
20260831111538 70 0 0.0 0.0 0.00 0.00 0.00 100 1019.8
20260831111023 70 0 0.0 0.0 0.00 0.00 0.00 99 1019.8
20260831110528 70 0 0.0 0.0 0.00 0.00 0.00 100 1019.8
20260831110045 70 0 0.0 0.0 0.00 0.00 0.00 99 1019.8
20260831105525 70 0 0.0 0.0 0.00 0.00 0.00 99 1019.8
20260831105021 70 0 0.0 0.0 0.00 0.00 0.00 99 1019.8
20260831104551 70 0 0.0 0.0 0.00 0.00 0.00 99 1019.8
20260831104020 70 0 0.0 0.0 0.00 0.00 0.00 99 1019.8
20260831103524 70 0 0.0 0.0 0.00 0.00 0.00 99 1019.8
20260831103042 70 0 0.0 0.0 0.00 0.00 0.00 99 1019.8
20260831102524 71 0 0.0 0.0 0.00 0.00 0.00 99 1019.7
20260831102024 70 0 0.0 0.0 0.00 0.00 0.00 99 1019.7
20260831101542 71 0 0.0 0.0 0.00 0.00 0.00 99 1019.7
20260831101024 71 0 0.0 0.0 0.00 0.00 0.00 99 1019.7
20260831100525 71 0 0.0 0.0 0.00 0.00 0.00 99 1019.7
20260831100038 71 0 0.0 0.0 0.00 0.00 0.00 99 1019.7
20260831095525 71 0 0.0 0.0 0.00 0.00 0.00 99 1019.7
20260831095024 71 0 0.0 0.0 0.00 0.00 0.00 99 1019.7
20260831094542 71 0 0.0 0.0 0.00 0.00 0.00 99 1019.7
20260831094025 71 0 0.0 0.0 0.00 0.00 0.00 99 1019.7
20260831093525 71 0 0.0 0.0 0.00 0.00 0.00 99 1019.7
20260831093046 71 0 0.0 0.0 0.00 0.00 0.00 99 1019.6
20260831092529 71 0 0.0 0.0 0.00 0.00 0.00 99 1019.6
20260831092024 71 0 0.0 0.0 0.00 0.00 0.00 99 1019.7
20260831091543 71 0 0.0 0.0 0.00 0.00 0.00 99 1019.6
20260831091024 71 0 0.0 0.0 0.00 0.00 0.00 99 1019.7
20260831090524 71 0 0.0 0.0 0.00 0.00 0.00 99 1019.7
20260831090054 71 0 0.0 0.0 0.00 0.00 0.00 99 1019.6
20260831085524 71 0 0.0 0.0 0.00 0.00 0.00 99 1019.5
20260831085025 71 0 0.0 0.0 0.00 0.00 0.00 99 1019.5
20260831084552 71 0 0.0 0.0 0.00 0.00 0.00 99 1019.5
20260831084024 71 0 0.0 0.0 0.00 0.00 0.00 99 1019.5
20260831083523 71 0 0.0 0.0 0.00 0.00 0.00 99 1019.5
20260831083042 72 0 0.0 0.0 0.00 0.00 0.00 99 1019.5
20260831082524 72 0 0.0 0.0 0.00 0.00 0.00 99 1019.5
20260831082024 71 0 0.0 0.0 0.00 0.00 0.00 99 1019.3
20260831081543 71 0 0.0 0.0 0.00 0.00 0.00 99 1019.4
20260831081023 71 0 0.0 0.0 0.00 0.00 0.00 99 1019.4
20260831080523 71 0 0.0 0.0 0.00 0.00 0.00 99 1019.5
20260831080043 72 0 0.0 0.0 0.00 0.00 0.00 99 1019.6
20260831075521 72 0 0.0 0.0 0.00 0.00 0.00 99 1019.6
20260831075024 72 0 0.0 0.0 0.00 0.00 0.00 99 1019.6
20260831074543 72 0 0.0 0.0 0.00 0.00 0.00 99 1019.6
20260831074024 72 0 0.0 0.0 0.00 0.00 0.00 99 1019.6
20260831073526 72 0 0.0 0.0 0.00 0.00 0.00 99 1019.6
20260831073042 72 0 0.0 0.0 0.00 0.00 0.00 99 1019.6
20260831072523 72 0 0.0 0.0 0.00 0.00 0.00 99 1019.5
20260831072024 72 0 0.0 0.0 0.00 0.00 0.00 99 1019.4
20260831071542 72 0 0.0 0.0 0.00 0.00 0.00 99 1019.4
20260831071026 72 0 0.0 0.0 0.00 0.00 0.00 99 1019.4
20260831070524 72 0 0.0 0.0 0.00 0.00 0.00 99 1019.4
20260831070054 72 0 0.0 0.0 0.00 0.00 0.00 99 1019.5
20260831065524 72 0 0.0 0.0 0.00 0.00 0.00 99 1019.6
20260831065023 72 0 0.0 0.0 0.00 0.00 0.00 99 1019.7
20260831064544 72 0 0.0 0.0 0.00 0.00 0.00 99 1019.7
20260831064024 72 0 0.0 0.0 0.00 0.00 0.00 99 1019.7
20260831063521 72 0 0.0 0.0 0.00 0.00 0.00 99 1019.9
20260831063047 73 0 0.0 0.0 0.00 0.00 0.00 99 1019.9
20260831062525 73 0 0.0 0.0 0.00 0.00 0.00 99 1019.9
20260831062025 73 0 0.0 0.0 0.00 0.00 0.00 99 1019.9
20260831061543 73 0 0.0 0.0 0.00 0.00 0.00 99 1019.8
20260831061025 73 0 0.0 0.0 0.00 0.00 0.00 99 1019.8
20260831060523 73 0 0.0 0.0 0.00 0.00 0.00 99 1019.8
20260831060047 73 0 0.0 0.0 0.00 0.00 0.00 99 1019.9
20260831055524 73 0 0.0 0.0 0.00 0.00 0.00 99 1020.0
20260831055024 73 0 0.0 0.0 0.00 0.00 0.00 99 1020.1
20260831054546 73 0 0.0 0.0 0.00 0.00 0.00 99 1020.2
20260831054027 73 0 0.0 0.0 0.00 0.00 0.00 99 1020.2
20260831053525 73 0 0.0 0.0 0.00 0.00 0.00 99 1020.2
20260831053058 73 0 0.0 0.0 0.00 0.00 0.00 99 1020.2
20260831052524 73 0 0.0 0.0 0.00 0.00 0.00 99 1020.1
20260831052024 73 0 0.0 0.0 0.00 0.00 0.00 99 1020.2
20260831051548 73 0 0.0 0.0 0.00 0.00 0.00 99 1020.2
20260831051021 74 0 0.0 0.0 0.00 0.00 0.00 99 1020.2
20260831050524 74 0 0.0 0.0 0.00 0.00 0.00 99 1020.3
20260831050047 74 0 0.0 0.0 0.00 0.00 0.00 99 1020.2
20260831045525 74 0 0.0 0.0 0.00 0.00 0.00 99 1020.2
20260831045027 74 0 0.0 0.0 0.00 0.00 0.00 99 1020.2
20260831044543 74 0 0.0 0.0 0.00 0.00 0.00 98 1020.2
20260831044024 74 0 0.0 0.0 0.00 0.00 0.00 99 1020.2